Location: Ellerstadt
(49.4644°N, 8.2615°E)
Time: 03:23:46
(UTC+00:00)

MOS 1 - Visible Passes

Search period start: 15 June 2021 00:00
Search period end: 25 June 2021 00:00
Orbit: 879 x 890 km, 99.1° (Epoch: 14 June)

Date Brightness Start Highest point End Pass type
(mag) Time Alt. Az. Time Alt. Az. Time Alt. Az.
15 Jun 6.8 21:20:12 10° WSW 21:22:59 14° W 21:25:47 10° NW visible
16 Jun 6.7 21:18:10 10° WSW 21:21:06 14° W 21:24:04 10° NW visible
17 Jun 6.7 21:16:08 10° WSW 21:19:14 15° W 21:22:20 10° NW visible
18 Jun 6.7 21:14:08 10° WSW 21:17:22 15° W 21:20:37 10° NW visible
19 Jun 6.7 21:12:08 10° WSW 21:15:29 16° W 21:18:52 10° NW visible
20 Jun 6.7 21:10:08 10° SW 21:13:37 16° W 21:17:08 10° NW visible
21 Jun 6.7 21:08:09 10° SW 21:11:46 17° W 21:15:22 10° NW visible
22 Jun 6.6 21:06:11 10° SW 21:09:53 18° W 21:13:37 10° NW visible
23 Jun 6.6 21:04:13 10° SW 21:08:01 18° W 21:11:51 10° NW visible
24 Jun 6.6 21:02:14 10° SW 21:06:09 19° W 21:10:05 10° NW visible
